Change the Weather History Date:

Wednesday, October 17, 2012

  Actual Average (KCHS) Record (KCHS)
Temperature  
Mean Temperature 64 °F 66 °F  
Max Temperature 75 °F 77 °F 91 °F (1972)
Min Temperature 53 °F 56 °F 35 °F (1939)
Degree Days  
Heating Degree Days 1 2  
Month to date heating degree days 22  
Since 1 July heating degree days 25  
Cooling Degree Days 0 4  
Month to date cooling degree days 90  
Year to date cooling degree days 2228  
Growing Degree Days 14 (Base 50)    
Moisture  
Dew Point 56 °F    
Average Humidity 77    
Maximum Humidity 94    
Minimum Humidity 53    
Precipitation  
Precipitation 0.00 in 0.13 in 3.72 in (1999)
Month to date precipitation 2.36  
Year to date precipitation 44.10  
Sea Level Pressure  
Sea Level Pressure 29.94 in    
Wind  
Wind Speed 1 mph (ENE)    
Max Wind Speed 10 mph    
Max Gust Speed -    
Visibility 10 miles    
Events      
T = Trace of Precipitation, MM = Missing Value Source: NWS Daily Summary

Daily Weather History Graph

Daily Weather History Graph

Search for Another Location

Airport or City:

Trip Planner

Search our weather history database for the weather conditions in past years. The results will help you decide how hot, cold, wet, or windy it might be!

Date:

Astronomy

Oct. 17, 2012 Rise Set
Actual Time 7:25 AM EDT 6:44 PM EDT
Civil Twilight 7:01 AM EDT 7:08 PM EDT
Nautical Twilight 6:32 AM EDT 7:37 PM EDT
Astronomical Twilight 6:03 AM EDT 8:06 PM EDT
Moon 9:48 AM EDT (10/17) 8:28 PM EDT (10/17)
Length of Visible Light 12h 07m
Length of Day
11h 18m
Waxing Crescent, 7% of the Moon is Illuminated
Oct 17
Waxing Crescent
Oct 21
First Quarter
Oct 29
Full
Nov 6
Last Quarter
Nov 13
New

Hourly Weather History & Observations

Time (EDT) Temp. Dew Point Humidity Pressure Visibility Wind Dir Wind Speed Gust Speed Precip Events Conditions
12:15 AM 53.6 °F 51.8 °F 94% 29.93 in 10.0 mi Calm Calm - 0.00 in   Clear
12:35 AM 55.4 °F 51.8 °F 88% 29.93 in 10.0 mi Calm Calm - 0.00 in   Clear
12:55 AM 55.4 °F 51.8 °F 88% 29.93 in 10.0 mi Calm Calm - 0.00 in   Clear
1:15 AM 55.4 °F 51.8 °F 88% 29.93 in 10.0 mi Calm Calm - 0.00 in   Clear
1:35 AM 55.4 °F 51.8 °F 88% 29.92 in 10.0 mi Calm Calm - 0.00 in   Clear
1:55 AM 55.4 °F 51.8 °F 88% 29.93 in 9.0 mi Calm Calm - 0.00 in   Clear
2:15 AM 55.4 °F 51.8 °F 88% 29.93 in 9.0 mi Calm Calm - 0.00 in   Clear
2:35 AM 53.6 °F 51.8 °F 94% 29.93 in 9.0 mi Calm Calm - 0.00 in   Clear
2:55 AM 53.6 °F 51.8 °F 94% 29.93 in 8.0 mi Calm Calm - 0.00 in   Clear
3:15 AM 55.4 °F 51.8 °F 88% 29.92 in 9.0 mi Calm Calm - 0.00 in   Clear
3:35 AM 55.4 °F 51.8 °F 88% 29.92 in 7.0 mi Calm Calm - 0.00 in   Clear
3:55 AM 55.4 °F 53.6 °F 94% 29.92 in 8.0 mi Calm Calm - 0.00 in   Clear
4:15 AM 55.4 °F 53.6 °F 94% 29.93 in 9.0 mi Calm Calm - 0.00 in   Clear
4:35 AM 55.4 °F 53.6 °F 94% 29.93 in 8.0 mi Calm Calm - 0.00 in   Clear
4:55 AM 55.4 °F 53.6 °F 94% 29.93 in 8.0 mi Calm Calm - 0.00 in   Clear
5:15 AM 55.4 °F 53.6 °F 94% 29.93 in 8.0 mi Calm Calm - 0.00 in   Clear
5:35 AM 57.2 °F 55.4 °F 94% 29.93 in 10.0 mi Calm Calm - 0.00 in   Clear
5:55 AM 55.4 °F 53.6 °F 94% 29.93 in 8.0 mi Calm Calm - 0.00 in   Clear
6:15 AM 57.2 °F 55.4 °F 94% 29.95 in 10.0 mi Calm Calm - 0.00 in   Clear
6:35 AM 55.4 °F 53.6 °F 94% 29.94 in 8.0 mi Calm Calm - 0.00 in   Clear
6:55 AM 57.2 °F 55.4 °F 94% 29.95 in 10.0 mi Calm Calm - 0.00 in   Clear
7:15 AM 57.2 °F 55.4 °F 94% 29.96 in 10.0 mi Calm Calm - 0.00 in   Clear
7:35 AM 57.2 °F 53.6 °F 88% 29.96 in 10.0 mi Calm Calm - 0.00 in   Clear
7:55 AM 57.2 °F 55.4 °F 94% 29.96 in 8.0 mi Calm Calm - 0.00 in   Clear
8:15 AM 57.2 °F 55.4 °F 94% 29.97 in 9.0 mi Calm Calm - 0.00 in   Clear
8:35 AM 59.0 °F 55.4 °F 88% 29.97 in 8.0 mi Calm Calm - 0.00 in   Clear
8:55 AM 62.6 °F 57.2 °F 82% 29.97 in 9.0 mi North 4.6 mph - 0.00 in   Partly Cloudy
9:15 AM 64.4 °F 57.2 °F 77% 30.00 in 10.0 mi Calm Calm - 0.00 in   Partly Cloudy
9:35 AM 64.4 °F 59.0 °F 83% 30.00 in 10.0 mi Calm Calm - 0.00 in   Partly Cloudy
9:55 AM 64.4 °F 57.2 °F 77% 30.01 in 9.0 mi Calm Calm - 0.00 in   Clear
10:15 AM 66.2 °F 57.2 °F 73% 30.01 in 9.0 mi North 3.5 mph - 0.00 in   Partly Cloudy
10:35 AM 66.2 °F 57.2 °F 73% 30.00 in 10.0 mi Calm Calm - 0.00 in   Partly Cloudy
10:55 AM 66.2 °F 55.4 °F 68% 29.99 in 10.0 mi Calm Calm - 0.00 in   Partly Cloudy
11:15 AM 68.0 °F 55.4 °F 64% 30.00 in 10.0 mi Calm Calm - 0.00 in   Partly Cloudy
11:35 AM 69.8 °F 55.4 °F 60% 30.00 in 10.0 mi Calm Calm - 0.00 in   Scattered Clouds
11:55 AM 69.8 °F 55.4 °F 60% 30.00 in 10.0 mi Calm Calm - 0.00 in   Scattered Clouds
12:15 PM 73.4 °F 55.4 °F 53% 29.99 in 10.0 mi NE 3.5 mph - 0.00 in   Scattered Clouds
12:35 PM 73.4 °F 57.2 °F 57% 29.98 in 10.0 mi ENE 5.8 mph - 0.00 in   Partly Cloudy
12:55 PM 75.2 °F 57.2 °F 53% 29.97 in 10.0 mi ENE 6.9 mph - 0.00 in   Partly Cloudy
1:15 PM 73.4 °F 57.2 °F 57% 29.96 in 10.0 mi ENE 6.9 mph - 0.00 in   Scattered Clouds
1:35 PM 75.2 °F 57.2 °F 53% 29.95 in 10.0 mi NE 9.2 mph - 0.00 in   Partly Cloudy
1:55 PM 75.2 °F 57.2 °F 53% 29.94 in 10.0 mi NE 8.1 mph - 0.00 in   Partly Cloudy
2:15 PM 75.2 °F 57.2 °F 53% 29.94 in 10.0 mi NNE 5.8 mph - 0.00 in   Partly Cloudy
2:35 PM 73.4 °F 57.2 °F 57% 29.94 in 10.0 mi Calm Calm - 0.00 in   Scattered Clouds
2:55 PM 73.4 °F 57.2 °F 57% 29.93 in 10.0 mi East 5.8 mph - 0.00 in   Mostly Cloudy
3:15 PM 71.6 °F 55.4 °F 57% 29.93 in 10.0 mi East 8.1 mph - 0.00 in   Scattered Clouds
3:35 PM 73.4 °F 57.2 °F 57% 29.93 in 10.0 mi East 9.2 mph - 0.00 in   Scattered Clouds
3:55 PM 73.4 °F 57.2 °F 57% 29.93 in 10.0 mi ENE 10.4 mph - 0.00 in   Partly Cloudy
4:15 PM 73.4 °F 57.2 °F 57% 29.93 in 10.0 mi East 6.9 mph - 0.00 in   Clear
4:35 PM 73.4 °F 57.2 °F 57% 29.93 in 10.0 mi East 9.2 mph - 0.00 in   Clear
4:55 PM 71.6 °F 57.2 °F 60% 29.92 in 10.0 mi East 8.1 mph - 0.00 in   Scattered Clouds
5:15 PM 73.4 °F 57.2 °F 57% 29.91 in 10.0 mi ENE 10.4 mph - 0.00 in   Scattered Clouds
5:35 PM 71.6 °F 57.2 °F 60% 29.92 in 10.0 mi East 10.4 mph - 0.00 in   Mostly Cloudy
5:55 PM 71.6 °F 57.2 °F 60% 29.91 in 10.0 mi ENE 5.8 mph - 0.00 in   Scattered Clouds
6:15 PM 71.6 °F 57.2 °F 60% 29.91 in 10.0 mi ENE 4.6 mph - 0.00 in   Partly Cloudy
6:35 PM 69.8 °F 57.2 °F 64% 29.91 in 10.0 mi Calm Calm - 0.00 in   Clear
6:55 PM 66.2 °F 57.2 °F 73% 29.92 in 10.0 mi Calm Calm - 0.00 in   Clear
7:15 PM 64.4 °F 57.2 °F 77% 29.91 in 10.0 mi Calm Calm - 0.00 in   Clear
7:35 PM 64.4 °F 57.2 °F 77% 29.92 in 10.0 mi Calm Calm - 0.00 in   Clear
7:55 PM 64.4 °F 57.2 °F 77% 29.92 in 10.0 mi Calm Calm - 0.00 in   Clear
8:15 PM 62.6 °F 57.2 °F 82% 29.92 in 10.0 mi Calm Calm - 0.00 in   Clear
8:35 PM 62.6 °F 57.2 °F 82% 29.93 in 10.0 mi Calm Calm - 0.00 in   Clear
8:55 PM 64.4 °F 57.2 °F 77% 29.93 in 10.0 mi Calm Calm - 0.00 in   Scattered Clouds
9:15 PM 64.4 °F 57.2 °F 77% 29.94 in 10.0 mi Calm Calm - 0.00 in   Mostly Cloudy
9:35 PM 62.6 °F 59.0 °F 88% 29.94 in 10.0 mi Calm Calm - 0.00 in   Mostly Cloudy
9:55 PM 64.4 °F 59.0 °F 83% 29.94 in 10.0 mi Calm Calm - 0.00 in   Partly Cloudy
10:15 PM 62.6 °F 59.0 °F 88% 29.94 in 10.0 mi Calm Calm - 0.00 in   Clear
10:35 PM 62.6 °F 57.2 °F 82% 29.93 in 10.0 mi Calm Calm - 0.00 in   Clear
10:55 PM 62.6 °F 60.8 °F 94% 29.93 in 10.0 mi Calm Calm - 0.00 in   Clear
11:15 PM 62.6 °F 59.0 °F 88% 29.92 in 10.0 mi Calm Calm - 0.00 in   Clear
11:35 PM 62.6 °F 59.0 °F 88% 29.92 in 10.0 mi Calm Calm - 0.00 in   Partly Cloudy
11:55 PM 64.4 °F 60.8 °F 88% 29.92 in 10.0 mi Calm Calm - 0.00 in   Mostly Cloudy